CAPE
320 341 251 300 270 224 193 135 2 4 0 0 0 0 0 0 0 0 0 0 0 0
255 300 206 69 53 42 5 0 0 0 0 0 0 0 0 0 14 13 4 1 0 0
225 154 62 40 45 2 0 0 0 0 0 0 0 0 0 8 10 13 1 2 0 0
32 23 8 2 0 0 0 0 0 0 0 0 0 0 0 1 5 7 0 1 3 31
0 0 4 0 0 0 0 0 0 0 0 0 0 0 0 4 22 2 0 10 0 60
0 0 0 0 0 0 0 0 0 0 0 3 0 0 11 23 45 7 1 13 30 75
0 0 0 0 0 0 0 0 0 4 5 0 8 30 51 49 28 20 14 33 29 44
2 0 0 0 0 0 0 0 16 20 0 0 0 1 11 10 20 24 12 35 29 24
26 0 0 0 0 0 0 2 30 16 0 0 0 0 0 6 29 10 12 13 10 2
16 0 4 0 0 0 0 25 25 2 0 0 0 0 4 0 10 10 15 6 2 0
0 0 8 2 0 1 14 16 19 0 0 0 0 0 0 1 5 4 1 1 0 0
0 0 5 6 4 0 14 10 12 0 0 0 0 0 0 1 3 2 1 1 1 0
0 0 0 0 0 0 6 8 0 0 0 0 0 0 0 1 1 0 0 0 0 0
0 0 0 0 0 0 0 0 0 0 0 0 0 0 0 0 1 0 0 1 0 0
CIN
-443 -384 -375 -283 -283 -267 -250 -218 -34 -100 -6 -0 -0 -0 -0 -0 -0 -0 -0 -0 -0 -0
-374 -304 -300 -329 -301 -263 -227 -0 -0 -0 -0 -0 -0 -0 -0 -0 -50 -65 -80 -9 -0 -0
-305 -292 -307 -297 -231 -116 -0 -0 -0 -0 -0 -0 -0 -0 -0 -45 -57 -55 -53 -76 -0 -0
-343 -331 -237 -253 -0 -0 -0 -0 -0 -0 -0 -0 -0 -0 -0 -17 -62 -51 -0 -26 -33 -66
-0 -0 -374 -133 -0 -0 -0 -0 -0 -0 -0 -0 -0 -0 -0 -46 -55 -34 -0 -62 -0 -67
-0 -0 -0 -0 -0 -0 -0 -0 -0 -0 -0 -37 -0 -5 -81 -66 -46 -66 -12 -60 -70 -61
-0 -0 -0 -0 -0 -0 -0 -0 -0 -28 -49 -0 -64 -73 -50 -41 -50 -62 -69 -63 -77 -78
-314 -0 -0 -0 -0 -0 -0 -0 -49 -55 -7 -0 -2 -68 -83 -78 -70 -77 -81 -76 -83 -87
-289 -0 -0 -0 -0 -0 -0 -35 -48 -58 -0 -0 -0 -0 -0 -76 -62 -90 -90 -86 -109 -120
-260 -0 -26 -7 -0 -0 -0 -46 -52 -30 -0 -0 -0 -0 -87 -72 -92 -103 -90 -102 -121 -21
-6 -0 -31 -17 -0 -29 -42 -29 -48 -0 -0 -0 -0 -0 -0 -55 -100 -106 -16 -43 -10 -0
-0 -0 -15 -21 -30 -9 -40 -33 -50 -0 -0 -0 -0 -0 -13 -77 -107 -70 -35 -0 -0 -0
-0 -0 -0 -0 -0 -0 -50 -49 -0 -0 -0 -0 -0 -0 -0 -10 -0 -0 -0 -0 -0 -0
-0 -0 -0 -0 -0 -0 -0 -0 -0 -0 -0 -0 -0 -0 -0 -0 -0 -0 -0 -0 -0 -0
Wind_Speed
6 6 5 5 4 4 4 4 5 7 8 8 7 8 8 8 8 8 7 8 9 12
8 7 7 8 7 6 6 6 6 7 7 7 8 8 8 8 9 9 8 8 12 17
8 8 9 9 8 7 7 8 8 9 8 8 9 9 8 8 8 8 8 11 15 20
10 9 9 9 8 8 8 9 10 10 10 10 10 9 8 7 7 8 10 12 17 20
10 9 9 8 8 9 9 10 11 10 11 11 9 8 7 8 7 10 14 15 17 21
11 9 8 8 9 8 8 9 11 10 12 13 15 16 11 9 10 11 16 21 20 22
13 12 10 9 9 8 8 9 11 11 13 15 17 19 14 13 12 11 10 14 21 22
13 12 10 9 10 9 7 9 11 11 14 16 18 19 18 18 16 12 12 18 16 15
14 13 14 13 13 11 9 10 11 10 14 17 19 18 19 17 17 15 10 10 8 7
15 16 17 16 14 13 8 9 10 10 13 17 16 11 19 18 13 13 15 11 10 8
17 18 18 17 15 14 10 11 11 10 13 16 14 18 19 17 14 16 16 18 17 15
17 17 15 13 14 12 8 8 7 10 12 14 14 15 21 20 17 15 22 24 21 11
18 18 16 16 16 11 8 7 11 9 13 12 11 15 21 22 17 5 21 22 23 28
19 19 18 17 16 11 16 9 17 9 14 12 13 18 22 22 17 20 17 22 26 32
Wind_Direction
70 73 73 86 83 82 74 38 17 3 9 14 26 25 27 33 36 46 58 83 120 145
71 71 80 84 80 74 54 38 28 33 36 39 35 33 60 69 41 46 68 118 142 171
68 70 77 81 80 63 47 33 47 52 43 41 48 59 77 66 48 63 101 140 157 180
66 68 70 71 59 45 32 48 67 61 42 47 48 76 69 101 87 114 120 131 160 181
62 61 60 46 45 50 39 57 61 41 25 46 104 88 71 43 68 130 151 152 159 201
59 49 45 52 55 36 27 36 53 23 31 44 7 14 49 62 73 105 156 192 164 175
75 66 60 51 42 41 27 41 34 12 29 19 29 9 44 86 95 21 351 292 167 167
64 56 56 54 46 54 27 27 41 28 19 19 33 5 29 41 49 36 289 240 251 121
66 68 87 86 78 73 46 28 54 4 21 27 24 338 3 24 39 44 331 1 6 335
85 93 104 102 92 87 22 41 44 2 12 36 332 279 40 51 349 18 46 40 40 23
100 102 110 91 94 95 57 72 58 335 356 4 296 356 42 36 27 45 53 65 83 75
104 100 86 83 91 80 32 30 342 319 355 311 323 9 73 52 48 47 142 115 91 37
109 103 93 96 102 72 313 338 272 345 86 265 305 163 86 81 54 349 155 141 136 123
107 110 107 106 107 68 240 281 235 311 241 246 216 158 113 126 170 171 183 157 144 131